Погода в Вирах

Украина / Сумская область     51°02′24″N   34°24′22″E
темп.,
°C
ветер,
м/с
пор.,
м/с
влажн.,
%
обл.,
%
осадки,
мм/ч
давл.,
гПа
погр.,
м
17 мая, пн
пн1700:00+15св4983100 0.0 1008145
03:00+15всв51288100 0.6 1007240
06:00+15в6139198 0.1 1004298
09:00+19вюв61273100 0.1 1004499
12:00+23юв8115686 0.0 10031016
15:00+22вюв5865100 0.0 1003767
18:00+22юв61074100 0.1 1002748
21:00+19юв6128587 0.1 1003354
18 мая, вт
вт1800:00+17ю41194100 0.0 1004360
03:00+16юв4796100 0.0 1004157
06:00+15ююв4895100 0.0 1004251
09:00+17ююв5987100 1.9 1004416
12:00+18ююв5884100 4.6 1004586
15:00+20ю6773100 6.9 10031189
18:00+19ююв58794 1.3 1003846
21:00+14юв4119317 1.6 1004313
19 мая, ср
ср1900:00+13юв5119511 0.0 1004287
03:00+12ююв4109636 0.0 1004251
06:00+12юв499788 0.0 1004276
09:00+16ююв568258 0.0 1005736
12:00+16ю448293 0.1 1005665
15:00+14ю3384100 0.4 1006309
18:00+13ююв2489100 0.1 1006251
21:00+12вюв3595100 0.2 1006121
20 мая, чт
чт2000:00+12вюв3695100 0.4 1005152
03:00+11ююв359685 0.5 1005104
06:00+11ю369751 0.0 1005218
09:00+13ююз5788100 0.0 1005599
12:00+13юз5893100 0.4 1006696
15:00+13зюз7118351 0.6 10071025
18:00+14зюз613744 0.1 10081226
21:00+10зюз369221 0.1 1008117
21 мая, пт
пт2100:00+10юз4986100 0.4 1009395
03:00+9юз4989100 0.4 1009384
06:00+9ююз4893100 0.0 1010275
09:00+13юз69754 0.0 1011856
12:00+16з686216 0.0 10121421
15:00+17зсз566114 0.0 10141401
18:00+16сз346799 0.0 10151007
21:00+12с2277100 0.0 101625